Lid_Strength_Index
7 7 8 10 12 11 14 12 14 13 11 9 8 8 8 7 6 7 6 5 5 4 3 3 3 2 2 2 2 2 1 1
9 8 8 9 9 14 14 17 18 14 13 12 10 9 8 8 8 7 6 5 5 4 4 3 2 2 2 2 2 2 1 1
10 12 12 11 12 13 13 14 16 16 14 9 9 8 8 7 7 7 6 6 5 4 3 3 3 2 2 2 2 2 1 1
12 9 8 10 12 13 15 15 13 14 13 7 8 8 7 7 7 6 5 5 5 4 3 4 4 2 2 2 2 2 1 1
14 11 10 11 10 11 13 14 15 16 13 7 7 7 6 7 7 6 5 5 5 4 5 4 4 3 2 2 2 2 1 1
16 14 11 12 11 10 13 17 16 15 13 10 8 7 7 6 6 6 5 5 5 5 4 4 3 3 2 2 2 2 2 2
11 10 10 11 11 10 12 13 16 14 13 11 8 7 7 6 6 6 6 5 5 5 4 4 4 3 3 2 2 2 2 2
12 9 9 12 11 10 10 10 11 12 12 10 8 6 6 6 6 7 6 5 5 4 4 4 3 3 3 2 2 1 2 2
15 11 11 13 12 11 10 9 10 13 11 10 10 10 7 7 7 7 6 5 5 4 4 4 3 3 3 3 2 2 2 2
15 14 18 11 7 9 10 9 9 9 8 8 7 6 6 6 6 6 5 5 4 4 4 3 3 2 2 2 3 2 2 2
16 16 12 10 9 10 11 11 8 9 8 8 7 6 7 5 5 5 5 5 4 3 3 3 3 2 2 2 3 4 3 2
14 18 19 12 8 6 7 14 8 7 8 8 7 12 9 6 4 5 5 5 4 4 3 3 3 3 3 3 5 5 2 2
15 16 13 9 7 6 14 14 7 7 7 7 9 7 6 5 6 6 6 5 4 5 5 4 4 3 5 3 3 2 2 2
14 16 18 7 8 12 9 7 7 6 7 7 6 5 5 5 6 6 6 5 5 5 5 5 4 5 5 4 5 4 3 2
13 13 8 7 7 6 5 7 6 7 6 6 6 6 5 6 5 6 5 5 5 6 6 5 5 5 6 7 6 6 5 2
12 9 9 7 7 6 6 6 6 5 5 5 6 5 5 5 5 5 5 5 4 5 6 6 5 5 6 6 7 6 5 3
11 10 9 8 8 6 6 6 5 4 4 5 5 5 5 5 5 5 5 4 5 6 6 6 5 6 5 6 7 8 7 4
13 10 10 9 8 6 7 6 5 5 5 5 4 5 4 5 5 4 4 3 5 5 5 7 7 6 6 6 7 8 8 5
9 8 8 7 7 6 7 7 6 5 5 5 4 5 4 4 4 4 3 3 3 5 6 7 7 6 6 6 7 8 9 8